Weather reports worldwide

Advertisment
Tyndrum, United Kingdom (99020): temperature & dewpoint: 12.01.2018 13:00:00 - 18.01.2018 13:00:00 (GMT)Tyndrum, United Kingdom (99020): precipitation: 12.01.2018 13:00:00 - 18.01.2018 13:00:00 (GMT)
Date & Time tt [°C] td [°C] rr [mm]
18.01.2018 13:00:00 1,3 0,9 0,0
18.01.2018 12:00:00 0,9 0,5 0,0
18.01.2018 11:00:00 0,4 0,2 0,0
18.01.2018 10:00:00 -0,3 -0,6 0,0
18.01.2018 09:00:00 -0,2 -0,4 0,0
18.01.2018 08:00:00 0,1 -0,1 0,0
18.01.2018 07:00:00 0,1 -0,1 0,0
18.01.2018 06:00:00 0,1 -0,1 0,0
18.01.2018 05:00:00 0,2 0,0 0,0
18.01.2018 04:00:00 -0,5 -0,7 0,0
18.01.2018 03:00:00 -1,2 -1,7 0,0
18.01.2018 02:00:00 -0,1 -0,5 0,0
18.01.2018 01:00:00 -0,4 -0,7 0,0
18.01.2018 00:00:00 -0,3 -0,6 0,0
17.01.2018 23:00:00 -0,5 -1,0 0,0
17.01.2018 22:00:00 0,0 -0,5 0,0
17.01.2018 21:00:00 0,1 -0,5 0,0
17.01.2018 20:00:00 0,0 -0,5 0,0
17.01.2018 19:00:00 -0,3 -1,4 0,0
17.01.2018 18:00:00 1,3 -0,2 0,0
17.01.2018 17:00:00 1,4 -0,1 0,0
17.01.2018 16:00:00 1,3 -0,2 0,0
17.01.2018 15:00:00 1,0 -0,1 0,0
17.01.2018 14:00:00 2,5 -0,1 0,0
17.01.2018 13:00:00 2,7 0,4 0,0
17.01.2018 12:00:00 1,9 0,3 0,0
17.01.2018 11:00:00 1,6 0,0 0,0
17.01.2018 10:00:00 2,3 -0,2 0,0
17.01.2018 09:00:00 1,8 -1,0 0,0
17.01.2018 08:00:00 0,7 -0,8 0,0
17.01.2018 07:00:00 0,7 -1,0 0,0
17.01.2018 06:00:00 0,5 -0,6 0,0
17.01.2018 05:00:00 0,2 -0,9 0,0
17.01.2018 04:00:00 0,3 -0,6 0,0
17.01.2018 03:00:00 0,2 -0,6 0,0
17.01.2018 02:00:00 -0,4 -1,4 0,0
17.01.2018 01:00:00 -0,7 -1,5 0,0
17.01.2018 00:00:00 -1,0 -1,8 0,0
16.01.2018 23:00:00 -1,1 -1,9 0,0
16.01.2018 22:00:00 -1,6 -2,6 0,0
16.01.2018 21:00:00 -1,2 -1,7 0,0
16.01.2018 20:00:00 -1,7 -2,6 0,0
16.01.2018 19:00:00 -0,8 -1,6 0,0
16.01.2018 18:00:00 -0,8 -2,0 0,0
16.01.2018 17:00:00 -0,4 -1,1 0,0
16.01.2018 16:00:00 -0,8 -1,6 0,0
16.01.2018 15:00:00 -0,4 -1,9 0,0
16.01.2018 14:00:00 0,3 -1,6 0,0
16.01.2018 13:00:00 0,2 -1,5 0,0
16.01.2018 12:00:00 0,3 -1,1 0,0
16.01.2018 11:00:00 0,5 -1,6 0,0
16.01.2018 10:00:00 0,7 -0,8 0,0
16.01.2018 09:00:00 -0,1 -0,9 0,0
16.01.2018 08:00:00 -0,2 -1,3 0,0
16.01.2018 07:00:00 0,4 -0,6 0,0
16.01.2018 06:00:00 0,3 -0,8 0,0
16.01.2018 05:00:00 0,6 -1,3 0,0
16.01.2018 04:00:00 0,6 -0,8 0,0
16.01.2018 03:00:00 0,4 -0,5 0,0
16.01.2018 02:00:00 0,7 -1,1 0,0
16.01.2018 01:00:00 0,6 -0,3 0,0
16.01.2018 00:00:00 0,8 -0,9 0,0
15.01.2018 23:00:00 0,8 -0,9 0,0
15.01.2018 22:00:00 0,7 -0,6 0,2
15.01.2018 21:00:00 1,5 -0,2 0,0
15.01.2018 20:00:00 0,8 0,0 0,2
15.01.2018 19:00:00 0,6 -0,1 0,2
15.01.2018 18:00:00 1,4 0,5 0,2
15.01.2018 17:00:00 1,2 0,0 0,8
15.01.2018 16:00:00 2,4 1,1 0,4
15.01.2018 15:00:00 2,6 1,0 0,6
15.01.2018 14:00:00 3,3 1,5 0,2
15.01.2018 13:00:00 3,7 1,7 0,2
15.01.2018 12:00:00 4,2 1,8 0,0
15.01.2018 11:00:00 4,3 2,1 0,4
15.01.2018 10:00:00 4,4 2,1 0,0
15.01.2018 09:00:00 4,3 2,4 0,0
15.01.2018 08:00:00 4,2 1,3 0,0
15.01.2018 07:00:00 5,0 2,7 0,0
15.01.2018 06:00:00 5,2 3,4 0,0
15.01.2018 05:00:00 5,8 3,5 0,0
15.01.2018 04:00:00 5,9 4,3 0,2
15.01.2018 03:00:00 6,3 4,6 0,0
15.01.2018 02:00:00 6,9 5,1 0,6
15.01.2018 01:00:00 7,4 6,0 1,2
15.01.2018 00:00:00 6,9 6,0 2,8
14.01.2018 23:00:00 6,7 5,9 3,2
14.01.2018 22:00:00 6,5 5,5 4,2
14.01.2018 21:00:00 6,0 4,8 4,4
14.01.2018 20:00:00 5,2 3,8 3,0
14.01.2018 19:00:00 4,6 3,3 2,0
14.01.2018 18:00:00 4,4 3,0 3,4
14.01.2018 17:00:00 5,0 3,4 3,6
14.01.2018 16:00:00 6,4 3,3 0,0
14.01.2018 15:00:00 6,7 3,2 0,0
14.01.2018 14:00:00 6,9 2,9 0,0
14.01.2018 13:00:00 6,9 3,1 0,0
14.01.2018 12:00:00 6,5 3,2 0,0
14.01.2018 11:00:00 6,1 3,1 0,0
14.01.2018 10:00:00 5,7 3,2 0,0
14.01.2018 09:00:00 5,3 3,5 0,2
14.01.2018 08:00:00 5,1 3,8 0,0
14.01.2018 07:00:00 5,6 3,9 0,0
14.01.2018 06:00:00 5,0 4,2 1,2
14.01.2018 05:00:00 5,1 4,1 0,4
14.01.2018 04:00:00 4,7 4,1 0,2
14.01.2018 03:00:00 3,8 3,3 0,2
14.01.2018 02:00:00 3,9 3,2 -
14.01.2018 01:00:00 4,1 3,5 0,4
14.01.2018 00:00:00 3,9 3,1 0,2
13.01.2018 23:00:00 4,0 3,0 0,0
13.01.2018 22:00:00 4,1 2,6 0,0
13.01.2018 21:00:00 3,9 2,2 0,0
13.01.2018 20:00:00 3,9 2,0 0,0
13.01.2018 19:00:00 3,7 2,1 0,2
13.01.2018 18:00:00 3,4 2,3 0,0
13.01.2018 17:00:00 3,6 2,1 0,2
13.01.2018 16:00:00 3,5 1,9 0,2
13.01.2018 15:00:00 4,1 1,8 0,0
13.01.2018 14:00:00 4,7 1,4 0,0
13.01.2018 13:00:00 4,9 1,2 0,0
13.01.2018 12:00:00 4,9 1,2 0,0
13.01.2018 11:00:00 4,7 1,1 0,0
13.01.2018 10:00:00 4,9 1,2 0,0
13.01.2018 09:00:00 4,7 1,2 0,0
13.01.2018 08:00:00 5,0 1,1 0,0
13.01.2018 07:00:00 4,5 0,9 0,0
13.01.2018 06:00:00 4,5 1,0 0,0
13.01.2018 05:00:00 4,6 1,0 0,0
13.01.2018 04:00:00 4,3 0,7 0,0
13.01.2018 03:00:00 4,7 0,6 0,0
13.01.2018 02:00:00 4,6 0,7 0,0
13.01.2018 01:00:00 4,6 0,7 0,0
13.01.2018 00:00:00 4,4 0,5 0,0
12.01.2018 23:00:00 4,4 0,5 0,0
12.01.2018 22:00:00 4,1 0,5 0,0
12.01.2018 21:00:00 4,5 0,6 0,0
12.01.2018 20:00:00 4,4 0,6 0,0
12.01.2018 19:00:00 4,6 0,6 0,0
12.01.2018 18:00:00 4,9 0,9 0,0
12.01.2018 17:00:00 4,7 1,1 0,0
12.01.2018 16:00:00 4,9 1,4 0,0
12.01.2018 15:00:00 5,2 1,5 0,0
12.01.2018 14:00:00 5,2 1,5 0,0
12.01.2018 13:00:00 - - 0,0

tt = temperature
td = dewpoint
rr = precipitation

Next stations